Location: Wildlife_Club
(35.6000°N, 81.4330°W)
Time: 06:26:23
(UTC-04:00)

Daily predictions for brighter satellites

Satellite Brightness Start Highest point End
(mag) Time Altitude Azimuth Time Altitude Azimuth Time Altitude Azimuth
ATLAS CENTAUR R/B 3.2 19:26:20 10° SSW 19:30:14 53° ESE 19:41:18 10° NE
Meteor 2-5 Rocket 3.7 19:31:59 10° N 19:37:38 84° E 19:43:10 10° S
Meteor 1-24 Rocket 4.0 19:32:43 10° N 19:38:06 46° ENE 19:43:18 10° SSE
Cosmos 1707 2.6 19:36:35 10° N 19:40:26 74° E 19:44:16 10° SSE
Cosmos 1812 Rocket 4.3 19:36:17 10° SSW 19:40:33 60° W 19:44:51 10° N
Abrixas rocket 4.3 19:38:06 10° WNW 19:40:58 27° SW 19:43:49 10° SSE
SAR-Lupe-4 3.7 19:40:53 10° SSE 19:44:21 51° ENE 19:47:49 10° N
Cosmos 1464 Rocket 4.3 19:39:24 10° SSE 19:45:16 44° E 19:51:06 10° NNE
SJ-6B 3.2 19:41:57 10° SSE 19:45:42 44° ENE 19:49:33 10° N
FREGAT/IRIS 3.5 19:44:54 10° SE 19:47:39 30° ENE 19:50:25 10° N
Milstar 3 4.4 19:40:07 10° WSW 19:49:24 63° S 20:06:29 12° E
Cosmos 921 Rocket 4.1 19:45:47 10° NNW 19:49:48 47° W 19:53:48 10° S
Cosmos 1437 2.7 19:48:51 10° N 19:52:06 68° E 19:55:21 10° SSE
Cosmos 1758 4.3 19:51:22 10° SSE 19:54:45 26° E 19:58:10 10° NNE
Cosmos 2333 Rocket 4.1 19:53:00 10° SW 19:58:08 33° WNW 20:03:18 10° N
TIMED 4.5 19:53:47 10° NNW 19:58:09 67° ENE 20:02:28 10° SSE
Spot 2 Rocket 3.9 19:56:06 10° SE 20:00:48 42° ENE 20:05:31 10° N
NOSS 3-2 (C) 3.4 19:55:54 10° SSW 20:01:52 73° ESE 20:08:19 10° NE
CENTAUR R/B 3.8 19:58:45 10° SE 20:02:15 16° ESE 20:05:41 11° ENE
GPS 2-04 Rocket1 3.9 20:01:54 10° SSW 20:04:41 22° SSE 20:06:26 16° ESE
Cosmos 1076 Rocket 3.9 20:01:00 10° N 20:05:08 43° E 20:09:15 10° SSE
Cosmos-2242 3.7 20:03:08 10° SSE 20:07:02 33° E 20:10:59 10° NNE
ASTEX 1 4.5 20:03:15 10° NE 20:07:02 22° E 20:10:47 10° SE
Cosmos 2056 Rocket 3.6 20:02:03 10° NNW 20:07:31 84° ENE 20:12:55 10° SSE
Helios 1B rocket 2.5 20:03:43 10° NNE 20:07:44 51° E 20:11:43 10° S
SL-8 R/B 4.3 20:04:00 10° SSW 20:08:21 35° SE 20:11:40 16° ENE
Cosmos 1484 Rocket 4.1 20:04:46 10° S 20:08:22 42° W 20:12:04 10° NNW
NOAA 12 4.1 20:09:51 10° SSE 20:15:05 90° WSW 20:20:24 10° NNW
In-Cosmos 22 4.4 20:10:17 10° N 20:15:55 51° ENE 20:21:28 10° SSE
Atlas Centaur 2 3.6 20:11:43 10° W 20:19:55 49° SSW 20:26:10 16° SE
ASTRO E2 3.3 20:17:39 10° WSW 20:21:32 46° S 20:23:32 24° ESE
Cosmos 1408 Rocket 3.5 20:18:40 10° N 20:23:00 61° E 20:27:15 10° SSE
Cosmos 1766 4.5 20:24:41 10° SSW 20:28:28 45° W 20:32:17 10° N
ATLAS CENTAUR R/B 2.5 20:26:13 10° NW 20:30:05 40° WSW 20:33:39 10° S
Abrixas 2.8 20:27:18 10° SSW 20:30:09 42° SE 20:30:15 42° SE
Resurs 01 Rocket 1.5 20:26:32 10° SSE 20:31:00 85° ENE 20:35:27 10° N
HJ-1C 3.4 20:28:24 10° S 20:31:45 83° WSW 20:35:07 10° NNW
ATLAS 5 CENTAUR R/B 2.0 20:27:10 10° SW 20:31:52 74° WNW 20:36:57 10° NNE
Resurs 1-3 3.5 20:28:15 10° SSE 20:32:36 67° ENE 20:36:57 10° N
USA 215 3.8 20:34:20 10° NE 20:40:44 59° NW 20:47:06 10° WSW
BREEZE-M DEB (TANK) 4.4 20:20:54 10° NW 20:43:04 84° SW 20:46:39 26° SE
CZ-2D R/B 3.5 20:43:00 44° E 20:43:11 44° ENE 20:46:55 10° N
SL-16 R/B 3.7 20:38:01 10° SW 20:43:15 38° WNW 20:48:32 10° N
Meteor 1-29 3.7 20:42:38 10° N 20:46:05 55° WNW 20:49:29 10° SSW
Gbstr 26 Del rocket 3.8 20:44:55 10° SSW 20:48:32 36° SE 20:48:32 36° SE
Cosmos 1953 2.8 20:45:31 10° SSW 20:49:26 59° W 20:53:23 10° N
Cosmos 1743 Rocket 3.5 20:46:12 10° N 20:50:35 57° E 20:51:27 48° SE
ISS -1.6 20:47:59 10° SSW 20:49:30 23° SSW 20:49:30 23° SSW
Helios 1A 3.7 20:51:18 10° S 20:55:23 53° W 20:59:29 10° NNW
Nadezhda 4 Rocket 3.9 20:52:20 10° N 20:58:38 76° E 21:04:03 14° SSE
OAO 1 Rocket 4.4 20:53:21 10° W 20:58:44 83° S 21:00:06 51° E
SeaSat 1 2.3 20:56:02 10° NNE 21:00:58 70° ESE 21:05:53 10° SSW
H-2A R/B 2.6 21:01:10 75° NE 21:01:10 75° NE 21:04:56 10° N
Cosmos 1544 3.6 20:59:34 10° SSW 21:03:14 58° W 21:06:56 10° N
GP-B 4.5 20:59:15 10° NNE 21:01:21 25° NNE 21:01:21 25° NNE
Cosmos 1452 Rocket 3.7 20:58:56 10° NNW 21:04:10 70° WSW 21:07:30 23° S
Cosmos 1092 Rocket 3.9 20:58:28 10° N 21:04:37 60° E 21:06:37 41° SE
CZ-4B DEB 3.6 21:06:22 51° NW 21:06:22 51° NW 21:09:04 10° NNW
ALOS 2.4 21:04:18 25° S 21:07:03 73° W 21:11:43 10° NNW
SEDSat Delta rocket 4.1 21:03:57 10° W 21:10:37 62° S 21:12:12 49° SE
FENGYUN 3A 3.7 21:06:43 19° S 21:10:38 76° WSW 21:16:02 10° NNW
OAO 3 Rocket 3.0 21:08:27 10° W 21:13:15 85° S 21:13:21 84° SSE
Cosmos 1634 Rocket 3.9 21:09:32 10° S 21:15:43 67° E 21:21:54 10° NNE
Cosmos 1943 3.8 21:21:35 10° SSW 21:33:10 - NNE 21:25:09 41° S
Cosmos 1420 Rocket 4.0 21:21:58 10° NNW 21:27:17 80° WSW 21:27:35 76° SSW
Cosmos 2369 Rocket 3.0 21:24:54 10° N 21:28:54 39° NNE 21:28:54 39° NNE
Cosmos 1943 Rocket 4.1 21:33:28 10° N 21:35:15 17° NNE 21:35:15 17° NNE
BREEZE-M DEB (TANK) 4.4 21:19:50 10° NW 21:44:55 64° SW 21:46:50 49° S
CENTAUR R/B 2.6 21:45:59 10° SW 21:51:56 69° NW 21:53:12 55° N
Atlas Centaur 2 4.3 22:02:34 10° W 22:08:50 25° SSW 22:08:50 25° SSW
